Temp
11 11 11 11 11 11 11 11 11 11 11 11 11 11 11 11 11 11 11 11 11 11 11 11 11 12 12 12 12 12 12 12 12 12 12 12 12 11 11 11 11 11 11 11 11 11 11 11 11 12 12 12 12 12 12 11 11 11 11 11 11 11 11 11 11 12 13 14 14
11 11 11 11 11 11 11 11 11 11 11 11 11 11 11 11 11 11 11 11 11 11 11 11 11 11 11 11 11 12 12 12 12 12 12 11 11 11 11 10 10 10 10 10 11 11 11 11 11 11 11 11 11 11 11 11 11 11 11 11 11 11 11 11 11 11 12 12 13
11 11 11 11 11 11 11 11 11 11 11 11 11 11 11 11 11 11 11 11 11 11 11 11 11 11 11 11 11 11 11 11 11 11 11 11 11 11 10 10 10 10 9 9 10 10 10 10 10 10 10 10 10 11 11 11 11 11 11 11 11 11 11 11 11 11 11 11 11
11 11 11 11 11 11 11 11 11 11 11 11 11 11 11 11 11 11 11 11 11 11 11 11 11 11 11 11 11 11 11 11 11 11 11 11 11 11 10 10 10 9 9 9 9 9 9 9 9 10 10 10 10 10 10 11 11 11 11 10 10 11 11 11 11 10 10 10 11
11 11 11 11 11 11 11 11 11 11 11 10 10 10 10 10 11 11 11 11 11 11 11 11 11 11 11 11 11 11 11 11 11 11 11 11 11 10 10 10 10 9 9 8 8 8 8 8 9 9 9 9 9 9 9 10 10 10 10 10 10 10 10 10 10 10 10 10 10
11 11 11 11 11 11 11 11 11 11 10 10 10 10 10 10 10 10 10 11 11 11 11 11 11 11 11 11 11 11 11 11 11 11 11 11 10 10 10 10 9 9 9 8 8 8 8 8 8 8 8 8 8 8 9 9 9 10 10 10 10 10 10 10 10 10 10 10 10
11 11 11 11 11 11 11 11 10 10 10 10 10 10 10 10 10 10 10 10 10 10 11 11 11 11 11 11 11 11 11 11 11 11 11 10 10 10 10 10 9 9 9 8 8 8 7 8 8 8 8 8 8 8 8 8 9 9 9 10 10 10 10 10 10 10 10 10 10
11 10 10 10 10 10 10 10 10 10 10 10 10 10 10 10 10 10 10 10 10 10 10 10 11 11 11 11 11 11 11 11 11 11 10 10 10 10 10 9 9 9 9 8 8 7 7 7 7 7 7 7 7 8 8 8 8 8 9 9 10 10 10 10 10 10 10 10 9
10 10 10 10 10 10 10 10 10 10 10 10 10 10 10 10 10 10 10 10 10 10 10 10 10 10 10 10 10 10 10 10 10 10 10 10 9 9 9 9 9 9 8 8 7 7 7 7 7 7 7 7 7 7 7 7 8 8 8 9 9 9 10 10 9 9 9 10 9
10 10 10 10 10 10 10 10 10 10 10 10 10 10 10 10 10 10 10 10 10 10 10 10 10 10 10 10 10 10 10 10 10 10 10 9 9 9 9 9 9 9 8 8 7 7 7 7 6 6 6 6 6 6 7 7 7 7 8 8 9 9 9 9 9 9 9 9 9
10 10 10 10 10 10 10 10 10 10 10 10 10 10 10 10 10 10 10 10 10 10 10 10 10 9 9 9 9 9 9 9 9 9 9 9 9 9 9 9 9 8 8 8 7 7 7 6 6 6 6 6 6 6 6 6 7 7 7 7 8 8 9 9 9 9 9 9 9
10 10 10 10 10 10 10 10 10 10 10 10 10 10 10 10 10 10 10 10 10 10 9 9 9 9 9 9 9 9 9 9 9 9 9 9 9 9 9 8 8 8 8 8 7 7 6 6 6 5 5 5 5 5 6 6 6 6 7 7 7 8 8 8 8 8 8 8 8
10 10 10 10 10 10 10 10 10 10 10 10 10 10 10 10 10 10 10 10 9 9 9 9 9 8 8 8 8 8 8 8 8 8 8 8 8 8 8 8 8 8 8 8 7 7 6 6 6 5 5 5 5 5 5 5 5 6 6 6 6 7 7 7 7 7 7 7 7
9 9 9 9 9 10 10 10 10 10 10 10 10 10 10 10 9 9 9 9 9 9 9 8 8 8 8 8 7 7 7 7 8 8 8 8 8 8 8 8 8 8 8 8 7 7 6 6 5 5 5 4 4 4 5 5 5 5 5 6 6 6 6 6 6 6 6 6 5
9 9 9 9 9 9 9 9 9 9 9 9 9 9 9 9 9 9 9 9 9 8 8 8 8 7 7 7 7 7 7 7 7 7 7 7 7 7 7 7 8 8 8 8 7 7 6 6 5 5 5 4 4 4 4 4 4 5 5 5 5 5 5 5 5 5 5 5 4
9 9 9 9 9 9 9 9 9 9 9 9 9 9 9 9 9 9 9 8 8 8 8 8 7 7 7 7 6 6 6 6 6 6 6 7 7 7 7 7 7 7 7 7 6 6 6 6 5 5 5 4 4 4 4 4 4 4 4 4 5 5 5 5 4 4 4 4 4
9 9 9 9 9 9 9 9 9 9 9 9 9 9 9 9 8 8 8 8 8 8 7 7 7 7 6 6 6 6 6 6 6 6 6 6 6 6 6 6 7 7 7 6 6 6 6 5 5 5 5 4 4 4 4 4 4 4 4 4 4 4 4 4 4 3 3 3 3
9 9 9 9 9 9 9 9 9 9 9 9 9 9 8 8 8 8 8 8 7 7 7 7 7 6 6 6 6 6 5 5 5 5 5 5 6 6 6 6 6 6 6 6 6 6 5 5 5 5 4 4 4 4 3 3 3 3 3 3 3 3 3 3 3 3 3 3 2
9 9 9 9 9 9 9 9 9 9 8 8 8 8 8 8 8 8 7 7 7 7 7 7 6 6 6 6 5 5 5 5 5 5 5 5 5 5 5 5 6 6 6 6 6 6 5 5 5 5 4 4 4 3 3 3 3 3 3 3 3 3 3 2 2 2 2 2 2
9 9 9 9 9 8 8 8 8 8 8 8 8 8 8 8 7 7 7 7 7 7 7 6 6 6 6 6 5 5 5 5 5 5 5 5 5 5 5 5 5 6 6 6 6 6 5 5 5 4 4 4 3 3 3 3 3 3 3 3 2 2 2 2 2 2 2 2 2
8 8 8 8 8 8 8 8 8 8 8 8 8 8 7 7 7 7 7 7 7 7 6 6 6 6 5 5 5 5 5 4 4 4 4 4 4 4 5 5 5 5 5 5 5 5 5 5 5 4 4 4 3 3 3 3 3 2 2 2 2 2 2 2 1 1 1 1 1
8 8 8 8 8 8 8 8 8 8 8 8 7 7 7 7 7 7 7 7 7 6 6 6 6 5 5 5 5 5 4 4 4 4 4 4 4 4 4 5 5 5 5 5 5 5 5 5 4 4 4 3 3 3 3 3 2 2 2 2 2 2 1 1 1 1 1 1 1
8 8 8 8 8 8 8 8 8 7 7 7 7 7 7 7 7 7 7 7 6 6 6 6 5 5 5 5 4 4 4 4 4 3 3 3 4 4 4 4 5 5 5 5 5 5 5 5 4 4 4 3 3 3 3 2 2 2 2 2 2 1 1 1 1 1 1 1 1
8 8 8 8 8 8 7 7 7 7 7 7 7 7 7 7 7 7 7 6 6 6 6 5 5 5 5 4 4 4 3 3 3 3 3 3 3 4 4 4 4 5 5 5 5 5 5 4 4 4 4 3 3 3 3 2 2 2 2 2 1 1 1 1 1 1 1 1 1
8 8 7 7 7 7 7 7 7 7 7 7 7 7 7 7 7 6 6 6 6 6 5 5 5 4 4 4 4 3 3 3 3 3 3 3 3 3 4 4 4 4 5 5 5 5 5 4 4 4 3 3 3 3 2 2 2 2 2 1 1 1 1 1 1 1 1 1 1
7 7 7 7 7 7 7 7 7 7 7 7 7 7 6 6 6 6 6 6 5 5 5 5 4 4 4 3 3 3 3 3 3 3 3 3 3 3 3 4 4 4 4 5 5 5 5 4 4 4 3 3 3 3 2 2 2 2 1 1 1 1 1 1 1 1 1 1 1
7 7 7 7 7 7 7 7 7 6 6 6 6 6 6 6 6 6 5 5 5 5 4 4 4 4 3 3 3 3 2 2 2 2 3 3 3 3 3 4 4 4 4 5 5 5 5 4 4 4 3 3 3 2 2 2 2 2 1 1 1 1 1 1 1 1 1 1 1
7 7 7 7 7 7 6 6 6 6 6 6 6 6 6 6 5 5 5 5 4 4 4 4 3 3 3 3 2 2 2 2 2 2 3 3 3 3 4 4 4 4 5 5 5 5 4 4 4 3 3 3 3 2 2 2 2 1 1 1 1 1 1 1 1 1 1 1 1
7 7 7 6 6 6 6 6 6 6 6 6 6 6 5 5 5 5 4 4 4 3 3 3 3 3 3 2 2 2 2 2 2 2 2 2 3 3 3 4 4 4 4 5 4 4 4 4 4 3 3 3 2 2 2 2 1 1 1 1 1 1 1 1 1 1 1 1 0
6 6 6 6 6 6 6 6 6 6 6 5 5 5 5 5 4 4 4 4 3 3 3 3 3 3 2 2 2 2 2 2 2 2 2 2 2 3 3 3 4 4 4 4 4 4 4 4 3 3 3 2 2 1 1 1 1 1 1 1 1 1 1 1 1 1 1 0 0
6 6 6 6 6 6 5 5 5 5 5 5 5 4 4 4 4 4 3 3 3 3 3 3 2 2 2 2 2 2 2 2 2 1 1 2 2 2 3 3 3 4 4 4 4 4 4 4 3 3 2 2 1 1 1 1 1 1 1 1 1 1 1 1 1 0 0 -0 -0
6 6 6 5 5 5 5 5 5 5 4 4 4 4 4 3 3 3 3 3 3 3 2 2 2 2 2 2 2 1 1 1 1 1 1 1 2 2 3 3 3 3 4 4 4 4 4 3 3 2 1 1 1 1 1 1 1 1 1 1 1 1 1 1 0 0 -0 -0 -0
5 5 5 5 5 5 4 4 4 4 4 3 3 3 3 3 3 3 3 2 2 2 2 2 2 2 2 1 1 1 1 1 1 1 1 1 2 2 2 3 3 3 4 4 4 4 3 3 2 1 1 1 0 0 0 0 0 0 0 0 0 1 0 0 -0 -0 -0 -0 -0
5 5 4 4 4 4 3 3 3 3 3 3 3 2 2 2 2 2 2 2 2 2 2 2 2 1 1 1 1 1 1 1 1 1 1 1 2 2 2 3 3 4 4 4 4 3 2 2 1 1 0 0 0 0 0 0 0 0 0 0 0 0 0 -0 -0 -0 -0 -0 -0
4 4 3 3 3 3 3 2 2 2 2 2 2 2 2 2 2 2 2 2 2 2 1 1 1 1 1 1 1 1 1 1 1 1 1 1 2 2 2 3 3 4 4 4 3 2 2 1 1 0 0 0 0 0 0 0 0 0 0 0 0 -0 -0 -0 -1 -0 -0 -0 -0
3 3 2 2 2 2 2 2 2 2 1 1 1 1 1 1 1 1 1 1 1 1 1 1 1 1 1 1 1 0 0 1 1 1 1 1 2 2 2 3 3 3 3 3 2 1 1 0 0 0 0 -0 -0 -0 0 0 -0 -0 -0 -0 -0 -1 -1 -1 -1 -1 -0 -0 -0
2 2 2 1 1 1 1 1 1 1 1 1 1 1 1 1 1 1 1 1 1 1 1 1 1 1 1 0 0 0 0 0 1 1 1 1 2 2 3 3 2 2 2 2 1 1 0 0 0 0 -0 -0 -0 -0 -0 -0 -0 -0 -0 -1 -1 -1 -1 -1 -1 -0 -0 -0 -0
1 1 1 1 1 1 1 1 1 0 0 0 0 0 1 1 1 1 1 1 1 1 1 1 0 0 0 0 0 0 0 0 1 1 1 1 2 2 2 2 1 1 1 1 0 0 0 0 0 0 0 -0 -0 -0 -0 -0 -0 -1 -1 -1 -1 -1 -1 -0 -0 0 0 0 -0
1 1 0 0 0 0 0 0 0 0 0 0 0 0 0 0 1 1 1 1 1 1 0 0 0 0 -0 -0 0 0 0 0 1 1 1 2 2 2 2 1 0 0 0 0 0 0 0 0 0 0 0 -0 -0 -0 -0 -0 -0 -1 -1 -1 -1 -1 -0 0 0 0 0 0 -0
-0 -0 -0 -0 -0 -0 -0 -0 -0 -0 -0 -0 -0 -0 0 0 0 0 0 0 0 0 -0 -0 -0 -0 -0 -0 0 0 0 0 1 1 1 2 2 2 1 0 -0 -0 -0 -0 -0 0 0 0 -0 0 -0 -0 -0 -0 -0 -0 -0 -1 -0 -0 -0 0 0 1 1 1 0 0 -0
-1 -1 -1 -1 -1 -1 -1 -1 -1 -1 -1 -1 -1 -0 -0 -0 -0 -0 -0 -0 -0 -0 -0 -0 -0 -0 -0 0 0 0 0 1 1 1 2 2 1 1 1 -0 -1 -1 -0 -0 -0 -0 -0 -0 -0 -0 -0 -0 -0 -0 -0 -0 -0 -0 -0 0 1 1 1 1 1 0 0 -0 -0
Height
773 773 772 771 770 769 769 767 766 765 764 763 762 761 759 759 757 756 755 755 754 753 752 751 750 749 748 747 747 746 745 744 743 742 742 741 740 739 739 738 738 737 737 736 736 735 734 734 733 731 730 729 729 729 728 729 730 732 732 732 733 734 735 735 735 735 734 734 735
772 772 771 770 769 769 768 766 765 764 763 762 761 760 759 758 757 755 754 754 753 752 750 749 749 748 747 746 746 745 744 743 742 741 741 740 739 738 738 737 736 736 736 735 735 734 734 733 732 731 730 729 728 727 726 726 728 729 730 730 730 731 732 733 733 734 734 734 734
771 770 770 769 768 767 766 765 764 763 762 761 760 759 758 757 756 754 753 752 751 750 749 748 747 746 745 745 744 744 743 742 741 740 739 739 738 737 736 736 735 734 734 734 734 733 733 732 731 730 729 728 727 725 724 724 725 727 728 729 729 729 729 729 730 731 732 731 732
769 769 768 767 767 766 765 764 763 762 761 760 759 758 757 756 755 754 752 751 750 749 748 747 745 744 744 743 742 742 741 741 740 739 738 737 736 735 735 734 734 733 733 732 732 732 731 730 729 729 728 726 725 724 723 722 723 724 725 726 727 728 727 727 728 729 729 730 730
768 767 767 766 765 764 764 763 762 761 760 759 758 757 756 755 754 752 751 749 748 747 746 745 744 743 742 742 741 740 739 739 738 738 737 735 735 734 733 733 732 732 731 731 731 730 729 729 728 727 726 725 724 723 722 721 722 722 722 724 725 726 726 725 726 726 728 729 730
766 766 765 764 764 763 762 761 760 759 758 757 756 755 754 753 752 751 749 748 747 746 745 744 743 742 741 740 739 738 737 737 736 735 734 734 733 732 731 731 730 729 729 729 729 729 728 728 727 725 724 724 723 722 721 721 720 719 719 721 723 724 724 724 723 724 725 727 729
765 765 764 763 762 761 760 759 759 758 757 756 754 754 752 751 750 749 748 747 746 744 743 742 741 740 739 739 737 736 735 734 734 733 732 732 731 730 730 729 728 728 727 727 727 727 727 726 725 724 723 722 721 720 720 720 719 719 718 718 719 720 722 722 721 721 722 724 727
764 764 763 762 761 760 759 758 757 756 755 754 753 752 750 749 749 747 746 745 744 743 742 740 739 739 738 737 736 735 734 733 732 731 730 730 729 729 728 727 727 726 725 725 725 725 725 724 723 722 721 720 720 719 719 719 718 718 717 716 716 717 719 719 719 719 719 721 724
763 762 762 760 759 758 757 756 755 754 753 752 751 750 749 748 746 745 744 743 742 741 740 739 738 737 736 735 734 733 732 731 730 729 729 728 727 727 726 726 725 724 724 724 723 723 722 722 721 719 719 719 719 718 718 718 718 717 716 715 714 714 715 716 716 716 717 719 721
762 761 760 759 758 757 756 754 754 752 751 750 749 748 747 746 744 744 743 741 740 739 739 738 737 736 734 734 733 732 731 730 729 728 727 726 726 725 724 724 724 723 722 722 722 721 720 719 718 717 717 717 717 717 717 717 716 716 715 714 713 713 713 714 714 714 715 716 718
761 759 759 757 756 755 754 753 752 750 749 748 747 746 745 744 743 742 741 740 739 738 737 736 735 734 733 732 731 730 729 729 728 727 726 725 725 724 723 722 722 721 720 719 720 720 719 718 716 715 715 715 715 715 715 715 715 715 714 714 713 712 711 711 712 713 713 714 716
759 758 757 756 754 754 752 751 750 749 747 746 745 744 743 742 741 740 739 738 737 736 735 734 734 733 732 731 730 729 728 727 727 726 725 724 723 723 722 721 720 719 718 718 718 718 718 716 714 713 713 713 713 714 714 714 714 714 713 713 712 711 710 709 710 711 712 712 714
758 756 755 754 753 752 750 749 748 747 745 744 743 742 741 740 739 738 737 736 735 734 734 733 732 731 730 730 729 728 727 726 725 724 723 722 722 721 720 719 718 717 716 715 715 716 715 714 712 711 711 711 711 712 712 712 712 712 712 711 711 710 709 709 709 709 710 711 712
756 755 754 752 751 750 749 747 746 744 743 742 741 740 739 738 737 736 735 734 733 732 732 731 730 729 729 728 727 726 726 725 724 723 722 720 719 719 718 717 716 715 714 714 713 713 712 711 710 709 709 709 709 709 710 710 710 710 710 709 709 709 709 708 708 707 708 709 710
754 753 752 750 749 748 747 745 744 743 741 740 739 738 737 736 735 734 733 732 731 730 730 729 728 728 727 726 725 724 724 723 722 721 719 719 718 717 716 714 714 713 712 711 711 710 709 708 707 706 707 707 707 708 708 708 709 709 709 708 708 707 707 707 707 707 707 707 709
752 751 750 749 747 746 745 743 742 741 739 738 737 736 735 734 733 732 731 730 729 729 728 727 726 725 725 724 723 723 722 721 720 719 718 716 715 714 713 712 711 710 709 709 708 707 706 705 704 704 704 704 705 705 706 706 707 707 707 707 706 706 705 705 705 706 706 707 708
750 749 748 747 745 744 743 741 740 739 737 736 735 734 733 732 731 730 729 728 727 726 725 725 724 723 722 721 721 720 719 719 718 717 715 714 713 712 711 709 708 707 707 706 706 704 703 702 701 701 702 702 703 703 704 704 704 705 705 705 705 705 704 704 704 704 705 706 708
748 747 746 744 743 742 740 739 738 736 735 734 733 732 731 730 729 728 727 726 725 724 723 722 722 721 720 719 718 718 717 716 715 714 713 712 711 710 708 707 705 704 704 703 703 702 701 700 699 699 699 700 700 701 701 702 703 703 704 704 704 704 704 703 703 703 704 705 707
746 745 744 742 741 739 738 737 735 734 733 732 730 729 728 727 727 725 724 724 723 722 721 720 719 718 718 717 716 715 714 714 713 712 710 709 708 707 706 704 703 701 701 700 699 699 699 698 697 697 697 697 698 699 699 700 701 701 702 702 703 703 703 703 703 703 704 704 705
744 743 741 740 739 737 735 734 733 732 730 729 728 727 726 725 724 723 722 721 720 719 719 717 716 715 714 714 713 712 712 711 710 709 708 706 705 704 703 701 700 698 697 697 696 696 696 695 694 694 694 695 696 696 697 698 699 699 700 701 701 702 702 703 703 704 704 704 705
742 740 739 737 736 734 733 732 731 729 728 727 726 724 723 722 721 720 719 718 717 717 715 714 714 713 712 711 710 709 709 708 707 706 704 704 702 701 700 699 697 695 694 693 692 692 692 692 692 691 692 692 693 694 695 696 697 698 698 699 699 700 701 702 703 704 704 705 706
739 738 737 735 734 732 731 729 728 727 726 724 723 722 721 719 719 717 716 715 714 714 713 712 711 710 709 708 707 706 705 705 704 703 702 700 699 698 697 695 694 692 690 690 689 689 689 689 689 689 689 689 690 692 693 694 695 696 696 697 698 699 700 701 702 703 704 705 706
737 736 734 733 731 730 729 727 726 724 723 722 720 719 718 717 716 715 714 713 712 711 710 709 708 707 706 705 705 704 703 702 700 699 698 697 696 694 693 692 690 688 687 687 686 686 685 685 685 686 686 687 688 689 691 693 693 694 694 695 696 698 699 700 701 702 704 705 706
735 734 732 730 729 728 726 725 724 722 721 719 718 717 715 714 713 712 711 710 709 708 707 706 705 704 704 703 702 701 700 699 697 696 694 693 692 691 689 688 687 685 684 683 683 682 682 683 683 683 684 684 685 687 689 690 691 692 693 694 694 696 698 699 700 702 703 704 706
732 731 729 728 727 725 724 723 721 720 718 717 715 714 713 712 710 709 708 707 706 705 704 704 703 702 701 700 699 698 697 696 694 693 691 689 688 687 686 684 683 682 680 679 679 678 678 679 679 680 680 682 683 684 686 688 689 690 690 691 692 694 696 698 699 701 702 704 705
730 729 727 726 724 723 722 720 719 717 716 714 713 712 710 709 708 707 706 705 704 703 702 701 700 699 699 697 696 695 694 693 691 689 688 686 684 683 682 680 679 678 676 675 674 674 674 674 675 676 677 678 680 682 684 685 687 688 688 689 690 692 694 696 698 700 701 703 705
727 726 724 723 722 720 719 718 716 715 714 712 711 709 708 707 706 704 703 702 701 700 700 699 698 697 696 695 693 692 690 689 688 686 684 683 680 679 677 676 675 674 673 672 670 670 670 670 671 672 674 675 677 679 681 683 684 685 687 688 689 689 691 693 695 698 700 702 704
725 723 722 720 719 718 716 715 714 713 711 710 708 707 705 704 703 702 701 700 699 698 697 696 695 694 693 692 690 689 687 686 684 683 681 679 677 675 674 672 671 670 669 669 667 666 666 666 667 669 670 672 674 676 678 680 682 683 684 686 687 688 689 691 693 696 698 700 703
722 721 719 718 716 715 714 713 711 710 709 707 706 704 703 702 701 700 699 698 697 696 694 693 692 691 690 689 687 685 684 682 680 679 677 676 674 672 670 669 668 667 666 665 664 663 663 663 664 666 668 670 672 674 676 678 679 681 683 684 685 687 688 690 692 694 696 698 701
720 719 717 715 714 713 711 710 709 708 706 705 704 702 701 700 699 698 696 695 694 693 692 691 689 688 687 685 683 682 680 678 677 675 674 672 670 669 667 666 664 664 663 662 661 660 660 660 662 664 666 668 670 672 674 675 677 679 681 683 684 685 687 689 690 692 694 696 699
718 716 715 713 712 710 709 708 707 705 704 703 702 700 699 698 696 695 694 693 691 690 689 688 686 685 683 681 680 678 676 674 673 671 670 669 667 665 663 662 661 660 659 659 658 657 658 658 660 662 664 667 669 670 672 674 675 677 679 681 683 684 686 687 689 690 692 694 698
716 714 713 711 710 709 707 706 705 704 702 701 699 698 697 695 694 693 692 690 689 687 686 684 683 681 679 678 676 674 672 670 669 667 666 665 663 661 659 658 657 656 655 654 654 654 655 656 658 661 664 666 668 670 671 673 674 677 679 681 682 684 685 686 688 689 691 694 696
714 713 711 710 708 707 706 704 703 702 701 699 698 696 695 693 692 690 689 688 686 685 683 681 680 678 676 674 673 670 668 666 665 664 662 661 659 658 656 654 653 652 651 650 650 651 653 654 657 660 663 666 668 669 671 673 675 677 679 682 683 684 685 685 687 689 691 694 696
713 711 710 709 707 706 704 703 702 700 699 697 696 694 693 691 689 688 686 684 683 682 680 678 676 674 673 671 669 667 664 662 661 659 658 657 655 654 652 650 649 648 647 646 647 648 650 652 655 659 663 666 668 669 671 673 675 678 680 683 684 685 685 686 687 689 691 694 697
712 710 709 708 706 705 703 702 700 699 697 695 693 692 690 689 687 685 683 682 680 678 676 674 673 671 669 667 665 663 661 659 657 655 654 653 652 650 648 646 644 644 643 643 644 646 648 651 655 659 662 664 667 668 670 673 676 679 681 683 684 685 686 686 688 689 692 695 698
711 710 709 707 705 704 702 700 699 697 695 693 691 689 687 686 684 682 680 679 677 675 672 670 669 667 666 664 661 659 658 655 653 652 650 649 648 646 644 642 641 640 640 641 642 644 647 650 654 658 661 663 666 668 670 673 676 679 681 683 684 685 686 687 689 691 694 696 699
711 709 708 706 704 702 700 699 697 695 693 690 689 686 684 683 681 679 677 676 674 671 669 667 665 664 662 660 658 656 654 652 650 648 646 645 643 642 640 639 638 638 638 639 641 644 647 650 654 657 659 662 665 667 670 673 676 679 681 683 684 685 687 688 690 692 695 697 699
710 709 707 705 703 701 699 697 695 693 690 688 686 684 682 680 678 676 674 673 671 668 665 664 662 660 658 656 654 652 649 648 646 644 642 641 639 638 637 636 636 636 637 639 640 643 646 650 653 656 659 661 664 667 670 673 676 679 681 683 684 686 688 689 691 694 696 698 700
709 708 706 704 702 699 697 695 693 690 688 685 683 681 679 677 675 673 671 670 668 666 663 660 658 656 654 653 651 648 645 643 641 640 638 637 635 635 634 634 635 636 637 639 640 643 646 649 653 655 658 660 663 666 669 673 676 679 681 683 684 686 689 690 692 695 697 699 701
708 707 705 703 700 698 695 693 690 688 686 684 681 679 676 674 672 670 669 667 665 663 660 658 654 652 651 649 647 645 642 639 637 635 634 633 632 632 632 632 634 635 637 639 640 643 646 649 652 655 657 660 663 665 669 672 675 678 680 682 684 686 689 691 693 695 698 700 703
707 705 703 701 698 696 694 691 688 685 683 681 679 676 674 672 670 668 666 664 662 660 657 654 652 649 648 646 644 642 638 634 632 631 630 629 629 629 630 631 633 635 637 639 641 643 646 649 652 654 657 659 662 665 668 671 674 677 680 681 683 685 688 691 694 696 698 701 703
Wind_Speed
15 15 16 17 18 18 19 19 19 20 20 20 20 21 21 21 22 22 22 22 22 22 23 23 23 24 24 25 26 27 28 27 26 26 26 26 27 28 28 28 28 29 30 31 31 31 30 30 31 32 33 35 35 35 35 35 35 35 34 33 33 32 30 28 29 31 32 32 30
15 15 16 17 18 18 19 19 19 19 20 20 21 22 22 23 23 23 23 23 23 24 24 24 24 24 25 25 26 27 28 28 28 27 27 26 26 26 27 27 28 29 31 33 34 34 34 34 34 34 33 34 33 34 35 36 36 36 35 33 31 31 31 31 32 32 31 31 29
15 15 16 17 18 18 19 19 20 20 21 21 22 22 23 23 23 24 24 24 25 25 25 25 25 25 25 25 26 27 27 27 28 28 28 27 27 27 26 27 28 29 31 32 34 35 36 37 38 37 34 32 32 34 35 35 38 38 37 33 29 28 28 30 31 31 30 29 29
16 16 17 17 18 19 19 20 21 21 21 22 22 22 23 23 23 24 24 25 25 25 25 25 26 26 26 26 26 27 27 28 28 29 29 30 29 29 29 28 29 29 30 31 32 34 35 36 38 38 38 36 34 33 33 33 35 37 38 35 30 27 26 26 27 28 27 26 27
17 18 18 19 20 20 21 21 22 22 22 22 22 23 23 23 24 24 25 25 25 25 26 27 27 28 28 28 27 28 29 29 29 29 30 30 31 31 31 29 28 28 28 28 30 31 32 33 35 36 38 38 36 35 34 33 32 33 35 36 34 31 28 26 25 24 24 24 25
19 20 20 21 22 22 22 22 23 23 23 23 23 23 23 23 24 24 25 25 26 27 27 28 29 29 29 29 29 29 30 30 30 30 30 30 30 30 29 28 27 27 28 29 29 30 31 31 32 33 33 34 33 33 33 32 31 32 33 33 33 32 30 28 26 26 25 25 25
20 21 22 23 23 24 24 24 24 24 24 24 24 24 24 25 25 26 26 27 27 27 28 28 28 28 29 29 30 30 30 30 30 30 30 30 29 29 29 29 28 28 29 29 30 30 31 32 32 33 34 34 33 33 32 31 30 29 30 31 34 35 33 30 29 28 29 29 28
22 22 23 24 24 24 25 25 25 24 24 24 25 25 26 26 27 27 27 27 27 27 27 27 27 27 28 28 29 30 29 29 29 29 29 30 29 29 29 29 29 29 29 29 30 31 32 32 32 32 34 34 34 33 32 31 29 28 28 29 32 34 35 32 30 30 31 32 31
23 24 24 25 25 25 25 25 25 25 25 25 26 26 27 27 27 27 27 27 26 26 26 26 27 27 28 28 29 29 28 27 27 27 27 27 28 28 29 29 29 29 29 29 29 31 31 31 31 31 32 32 32 32 32 31 29 28 28 28 28 30 31 31 31 31 33 33 33
24 25 25 25 26 26 26 26 26 26 26 26 26 27 27 27 27 27 27 26 26 26 26 26 27 28 28 29 29 29 28 28 27 26 25 25 26 27 28 28 28 29 28 28 28 29 30 30 30 30 30 30 30 30 30 30 29 28 27 26 27 29 30 29 30 31 33 34 34
25 25 26 26 26 26 27 27 27 27 26 27 27 27 27 27 27 27 27 27 27 27 27 27 27 28 28 29 29 29 29 29 28 27 25 24 24 25 27 28 28 28 28 28 28 29 29 28 28 29 29 29 29 28 29 29 29 28 27 26 27 28 29 29 29 30 32 34 35
25 26 26 26 27 27 27 27 27 27 27 27 27 27 27 27 27 27 27 27 27 27 27 26 27 27 27 28 28 29 30 30 30 29 27 26 25 26 27 28 29 29 29 29 29 29 29 28 28 27 27 28 28 28 28 28 28 28 27 26 26 27 28 29 30 31 31 33 35
26 26 27 27 27 28 28 28 28 27 27 27 27 27 27 27 27 27 27 27 27 27 27 27 27 27 27 27 28 28 29 30 30 30 30 30 29 29 29 30 31 31 30 30 30 30 30 30 29 27 27 27 27 28 28 28 28 28 27 26 26 26 27 28 30 31 32 32 34
26 27 27 28 28 28 28 28 28 28 27 28 28 27 27 27 27 27 27 28 28 27 27 27 27 27 27 27 27 28 29 30 31 32 33 33 33 34 34 34 34 33 32 32 31 32 32 31 29 28 27 27 27 28 28 28 28 28 28 28 28 27 27 28 30 31 33 33 33
27 28 28 29 29 29 29 29 28 28 28 28 28 28 28 28 28 28 28 28 28 28 28 28 28 27 27 28 28 29 29 30 30 31 33 34 35 35 36 36 36 35 35 34 34 34 34 32 30 29 28 28 28 28 28 29 29 29 29 30 30 30 29 29 30 31 33 34 34
28 29 29 30 30 30 30 29 29 29 28 29 29 29 29 29 29 29 29 29 29 29 28 28 28 29 29 29 29 29 29 30 30 31 32 33 34 34 34 34 34 35 36 36 36 34 33 32 31 30 29 28 28 28 29 29 29 29 29 30 30 31 31 31 32 32 33 35 34
29 30 30 30 31 31 31 30 30 30 30 30 30 30 30 30 30 30 29 30 30 29 30 30 30 30 29 29 29 29 30 30 30 31 32 33 33 34 34 33 33 34 36 37 36 34 33 32 31 31 30 29 29 29 29 29 29 29 29 29 29 30 31 33 33 34 34 35 35
30 30 31 31 31 31 31 31 31 31 31 31 31 31 31 31 30 30 31 31 31 31 31 31 31 30 30 30 30 30 30 30 31 31 32 33 34 35 35 35 34 34 35 36 36 35 33 33 32 31 30 30 29 29 29 30 29 29 29 28 28 29 30 32 33 34 35 35 35
31 31 32 32 32 32 32 32 32 32 32 32 32 32 32 32 32 32 32 32 32 32 32 32 32 31 31 31 30 30 30 31 31 32 32 33 34 36 37 36 35 34 34 36 37 36 34 33 32 32 31 30 29 29 29 29 29 29 29 28 28 28 29 30 31 32 34 35 35
31 32 32 32 32 32 32 32 32 33 33 33 33 33 33 33 33 33 33 33 33 33 33 32 32 32 32 31 31 31 32 31 32 32 33 33 34 35 37 37 36 35 35 36 37 36 35 34 33 32 31 30 29 29 29 29 29 29 28 28 28 28 28 29 29 30 31 33 34
32 32 33 33 33 33 33 33 33 33 33 33 33 34 34 34 34 34 34 34 33 33 32 32 32 32 32 32 32 32 32 32 32 33 33 34 35 35 37 38 38 37 36 36 36 36 35 35 34 33 32 30 30 30 29 29 29 29 28 28 28 28 28 29 29 29 29 30 31
33 33 33 34 34 34 34 34 34 34 34 34 34 34 34 34 34 34 34 34 33 33 32 31 31 31 32 32 32 33 33 34 34 34 34 34 34 35 36 38 37 36 34 34 33 34 35 35 34 33 32 31 30 30 30 29 29 29 29 28 28 28 28 29 29 29 29 30 30
34 34 34 34 34 34 34 34 34 34 34 34 34 34 34 34 34 34 34 34 33 32 32 31 31 31 31 31 32 33 33 34 35 35 35 35 35 36 37 37 36 35 34 34 33 33 34 34 34 33 32 31 31 31 31 30 29 29 29 29 29 29 28 29 28 28 29 29 30
35 35 35 35 34 34 34 34 35 35 35 35 35 35 35 35 35 34 34 33 33 32 31 30 30 31 31 31 32 32 32 33 35 36 36 36 36 37 36 36 35 35 35 36 34 34 34 33 33 33 32 31 31 31 31 30 30 30 30 30 30 29 29 28 28 28 28 29 29
36 36 36 35 35 35 35 35 35 35 35 35 35 35 35 35 35 34 34 33 33 32 32 31 30 30 30 31 32 32 32 33 34 35 36 37 37 37 36 35 34 34 34 35 35 36 36 36 35 33 32 31 31 31 31 31 31 30 31 31 31 30 29 29 28 28 28 29 28
36 36 36 35 35 35 35 35 35 35 36 36 36 35 35 35 34 34 33 33 33 33 33 32 31 31 31 31 31 32 32 33 34 35 35 36 37 37 36 34 34 33 33 34 35 36 38 40 38 35 34 33 32 31 31 31 31 31 31 32 32 31 31 30 29 28 28 28 28
36 36 36 35 35 35 35 35 36 36 36 36 35 35 35 34 34 33 33 34 34 34 33 32 31 32 32 32 32 32 32 33 33 34 35 36 36 36 36 34 33 32 31 32 34 36 40 42 40 38 35 34 33 32 31 31 31 31 31 31 32 32 31 31 30 29 28 27 27
36 36 36 36 35 36 36 36 36 36 36 35 35 35 34 34 33 33 34 34 33 33 32 31 32 32 31 30 31 32 33 33 34 35 35 35 36 35 34 33 32 31 31 32 33 36 41 42 41 39 36 34 33 32 31 31 31 31 31 31 31 31 31 31 30 29 28 27 26
36 36 36 36 36 36 36 36 36 35 35 35 34 34 34 33 33 33 33 33 33 32 31 30 31 31 31 30 31 33 34 35 35 35 35 35 35 35 35 34 33 32 33 33 33 36 40 42 41 39 37 35 32 31 31 31 30 30 30 29 30 30 30 30 30 29 28 28 27
35 35 35 35 36 36 36 35 35 35 34 34 33 33 33 33 33 33 32 32 33 33 32 31 31 31 31 32 33 33 34 35 36 35 34 34 35 36 36 35 34 33 34 35 34 37 40 41 40 38 37 34 32 30 30 30 30 30 29 28 29 29 30 29 30 30 30 29 29
35 35 35 35 35 35 35 34 34 34 33 33 32 32 32 32 32 33 33 33 34 34 34 33 33 33 33 33 33 34 35 37 37 36 35 35 36 36 36 36 35 35 36 36 35 37 40 40 39 37 36 34 31 30 29 30 30 30 29 28 29 29 30 30 30 31 31 31 31
34 34 34 34 33 33 33 33 32 32 32 32 32 32 33 33 33 34 34 34 34 34 34 33 33 33 33 33 33 35 36 36 36 36 35 35 36 36 35 35 35 36 37 35 34 37 40 39 38 37 35 33 30 29 28 29 29 29 28 28 29 30 30 30 30 32 33 32 32
33 33 32 32 32 32 31 31 31 31 32 32 33 33 34 34 35 35 35 35 34 34 34 33 33 33 33 33 34 35 36 36 36 36 36 36 35 35 35 35 36 37 35 32 34 38 40 39 38 37 34 31 29 28 28 28 28 27 27 27 28 29 29 30 31 32 33 32 31
32 32 31 31 31 31 31 32 32 32 33 33 34 34 35 35 35 35 35 35 35 35 34 34 34 34 33 33 34 35 35 35 36 35 35 35 35 35 35 36 36 34 30 31 36 40 40 39 38 37 34 31 29 28 28 28 27 26 26 26 26 27 28 30 32 32 31 31 30
32 31 31 31 31 32 32 33 33 34 34 34 35 35 36 36 36 36 36 36 36 35 35 35 34 33 33 33 34 34 35 35 35 35 35 35 34 35 37 38 35 30 29 35 39 41 41 40 39 37 34 31 29 29 29 28 26 26 25 25 25 26 28 30 30 30 30 29 29
31 31 32 32 33 33 34 34 35 35 35 35 36 36 36 37 36 36 36 35 35 35 35 35 34 33 32 34 34 34 34 34 34 34 34 34 35 37 37 35 28 26 32 39 41 42 42 41 40 37 34 32 30 30 29 28 27 26 25 25 25 27 28 29 28 28 28 28 28
32 32 33 33 34 34 35 35 35 35 36 36 36 36 36 37 36 36 35 34 33 33 34 34 33 32 33 34 33 34 34 34 34 34 34 35 37 37 32 24 22 29 36 41 42 43 43 42 40 37 35 33 31 30 29 27 26 26 26 26 27 27 27 27 27 27 27 27 27
32 32 33 33 34 35 35 35 35 36 36 36 37 37 36 36 35 35 34 32 32 33 33 34 34 34 34 35 34 35 36 36 35 35 35 37 37 32 23 22 27 33 38 42 44 44 44 43 40 38 36 34 32 31 29 27 26 26 26 26 26 26 26 25 25 25 26 26 28
32 32 33 33 34 35 35 35 36 36 36 37 37 37 36 36 35 34 34 33 32 33 33 34 35 35 35 35 35 35 36 36 37 37 37 36 32 25 23 27 31 35 39 43 45 46 45 43 40 38 36 35 33 31 28 27 26 26 26 26 25 25 25 25 25 25 26 27 28
32 33 33 34 34 35 35 35 36 36 36 36 36 36 36 36 35 35 34 32 32 32 33 34 35 36 35 35 34 34 36 37 38 38 36 31 26 25 28 31 33 36 40 43 46 46 45 42 40 38 36 34 32 30 28 27 26 26 26 26 26 26 25 25 25 25 26 27 28
33 33 34 34 34 35 35 36 36 37 37 36 37 36 36 36 35 34 33 32 32 32 32 32 34 35 35 34 33 34 36 38 39 36 29 23 26 29 31 33 36 38 41 43 45 46 44 42 39 37 35 32 31 29 28 27 26 26 26 26 26 26 26 26 25 25 26 27 27
Wind_Direction
306 306 307 308 307 305 303 301 301 300 301 301 301 301 301 300 299 297 296 295 293 292 291 290 290 291 292 295 296 298 299 298 297 295 293 291 290 290 291 291 290 289 288 287 285 283 280 276 272 268 265 263 261 259 256 253 253 255 256 257 256 254 251 245 239 234 229 226 223
304 304 304 304 303 302 301 301 302 303 303 303 303 303 302 301 299 297 295 293 292 290 289 287 286 285 286 287 290 292 294 296 296 295 294 291 289 288 288 287 286 284 283 283 283 282 280 278 275 273 270 267 264 261 259 255 254 254 256 256 255 252 249 245 241 235 230 226 223
304 303 302 301 300 300 301 302 302 303 303 302 302 301 301 299 298 296 294 292 291 290 289 287 285 283 282 282 283 285 288 290 291 292 291 290 288 286 285 285 284 283 282 281 280 279 277 276 274 273 272 270 266 264 261 257 254 253 253 254 253 249 244 240 236 232 228 223 219
306 304 302 301 301 300 301 301 301 301 301 300 300 299 299 298 296 295 294 293 292 291 290 289 288 287 284 282 281 281 282 284 285 286 286 286 285 284 283 283 283 283 282 281 279 277 275 274 273 272 272 271 269 267 263 260 254 250 250 251 252 249 242 235 230 227 224 220 215
308 307 306 304 304 303 302 301 300 300 299 299 299 298 297 296 296 295 295 295 294 293 292 292 292 291 290 288 285 283 282 280 280 280 280 281 281 281 281 280 280 280 281 281 279 276 273 271 271 271 272 272 272 270 267 263 257 250 247 247 249 248 243 235 227 221 217 215 212
311 310 309 308 306 305 303 302 301 300 299 299 298 297 296 296 296 296 296 296 296 295 294 294 293 293 293 292 290 287 284 281 278 276 275 276 277 278 278 277 277 277 278 279 278 276 272 269 268 268 269 270 270 271 269 266 260 252 246 243 243 243 241 233 224 215 210 208 208
312 311 310 308 307 305 304 302 301 300 300 299 297 296 295 295 295 295 295 296 296 296 296 295 294 293 292 292 291 289 286 282 278 275 273 273 273 274 275 275 275 276 276 276 276 274 271 267 265 265 265 266 267 267 267 265 259 252 245 240 239 239 236 227 218 209 203 202 201
311 310 309 307 306 304 303 303 301 301 299 298 297 296 295 295 295 295 296 296 296 296 297 297 296 295 295 294 294 293 291 288 283 279 276 273 272 271 272 273 275 276 276 275 272 270 267 264 262 261 262 263 264 265 264 261 256 250 243 237 233 232 229 220 211 204 199 198 196
310 308 307 306 305 304 303 302 301 300 299 297 296 296 295 295 295 295 296 296 296 297 298 299 299 299 299 299 299 300 300 298 293 288 282 276 272 269 270 271 274 276 276 274 270 266 262 259 258 257 257 258 259 260 260 257 252 245 239 232 225 219 216 211 206 201 198 195 192
308 307 306 305 304 303 303 302 300 299 298 297 296 295 295 295 295 295 295 295 296 297 298 299 300 301 302 302 303 304 304 303 300 295 289 281 274 271 270 271 272 274 275 273 270 265 259 255 253 253 253 254 254 254 253 251 246 239 232 226 218 212 207 204 200 197 195 192 189
307 306 305 304 304 303 302 301 300 299 298 296 296 295 295 294 294 294 294 295 296 297 297 299 300 301 302 303 303 303 303 301 300 298 295 288 281 276 274 273 273 273 273 273 271 265 258 252 248 248 249 249 249 247 246 244 239 233 226 220 215 209 204 200 195 192 190 189 186
306 305 304 303 303 302 301 300 299 298 297 295 295 294 294 294 294 294 294 294 295 295 296 297 298 299 300 301 301 300 299 299 298 297 296 293 288 284 281 278 276 275 274 273 270 265 257 249 244 243 243 244 243 241 239 237 233 227 221 216 210 204 199 194 190 188 186 183 181
305 304 303 302 302 302 301 300 298 297 296 295 294 294 293 293 293 294 294 294 294 294 295 295 296 296 297 297 297 296 296 296 296 295 294 292 290 288 285 282 281 279 277 274 269 262 254 246 241 238 238 238 237 236 234 231 226 221 216 211 205 200 194 188 186 184 181 176 173
304 303 302 302 301 301 300 299 298 297 295 294 294 293 293 293 293 293 293 293 293 293 293 294 294 294 294 294 294 294 294 294 293 292 291 289 288 287 285 284 283 282 279 275 269 260 250 242 236 234 233 233 232 231 230 226 222 218 213 208 202 197 191 185 181 178 174 170 167
303 303 302 301 301 300 299 298 297 296 295 294 293 293 293 292 292 292 292 292 292 292 292 292 292 292 292 292 292 293 293 292 292 291 289 288 287 285 284 283 282 281 279 275 268 258 247 238 233 231 230 229 228 227 226 223 219 215 212 207 201 195 189 183 178 174 169 166 163
303 302 301 301 300 299 298 297 297 296 295 294 293 293 292 292 292 292 292 291 291 291 291 290 290 291 291 291 291 292 292 291 291 289 288 287 286 284 282 280 279 279 278 275 267 257 245 236 232 230 228 227 225 223 222 220 217 213 210 206 201 194 188 182 176 172 168 166 163
302 301 301 300 299 298 297 296 296 295 294 294 293 293 292 292 291 291 291 290 291 290 290 289 289 289 290 290 290 290 291 290 290 289 288 287 285 284 281 278 276 276 275 273 268 258 246 236 231 228 227 225 223 220 219 217 214 211 207 204 198 192 186 181 176 172 169 166 164
301 301 300 299 298 297 296 296 295 294 294 294 293 293 292 292 291 291 290 289 289 289 288 288 288 288 288 288 288 289 289 289 288 288 287 286 285 283 281 278 275 273 273 271 267 259 248 237 230 226 225 223 221 219 216 214 211 207 204 200 195 190 184 179 175 172 168 166 164
301 300 299 298 297 297 296 295 295 294 294 294 294 293 293 292 291 290 290 289 288 288 288 287 287 287 287 287 287 287 287 287 287 286 286 285 284 283 281 278 275 273 271 270 266 260 249 238 230 225 222 220 218 216 213 211 207 204 201 196 191 187 182 177 174 171 169 167 164
300 299 299 298 297 296 296 295 295 294 294 294 293 293 292 292 291 290 289 288 288 287 287 286 286 286 286 286 286 286 286 286 286 285 285 284 283 282 280 278 275 272 270 268 265 259 249 238 229 223 219 216 214 212 209 207 203 200 196 192 188 184 180 176 173 170 168 166 164
299 299 298 298 297 296 296 295 295 294 294 293 293 292 292 291 291 290 289 288 288 287 286 285 285 285 285 286 286 286 286 286 285 284 284 283 282 280 279 278 275 272 270 268 264 258 248 237 228 221 217 213 210 208 205 202 199 196 192 189 185 182 178 175 172 170 167 165 163
299 298 298 297 297 296 296 295 295 294 294 293 292 292 291 291 290 290 289 289 288 287 286 286 285 285 286 286 286 286 286 285 284 283 282 282 280 279 277 276 275 273 273 272 267 258 248 235 226 219 214 210 207 205 202 198 194 191 188 185 182 179 176 174 171 169 167 165 164
299 298 297 297 296 296 295 295 295 294 294 293 292 292 291 291 290 290 290 290 289 289 288 287 287 286 286 286 286 285 285 284 283 283 282 280 278 277 275 274 274 274 275 274 269 259 246 233 222 216 211 207 204 201 198 195 191 187 184 181 178 176 174 172 170 168 166 165 164
298 297 297 296 296 295 295 295 295 294 294 293 293 292 292 291 291 292 292 291 291 291 290 289 289 288 287 287 286 285 284 283 283 282 281 280 278 276 274 273 273 274 274 272 268 257 243 228 218 211 207 203 200 197 195 192 188 184 180 177 174 173 171 170 168 167 165 164 163
298 297 296 295 295 295 295 295 295 294 294 293 293 293 292 292 292 292 293 293 292 292 291 291 290 290 289 288 286 285 283 282 281 281 280 279 277 275 273 272 271 271 271 270 264 252 237 222 213 207 202 199 196 194 192 189 185 181 177 173 171 169 168 167 167 166 165 163 162
297 296 296 295 295 295 295 294 294 294 294 293 293 292 292 292 293 293 293 293 292 291 291 291 291 290 289 288 286 284 282 281 280 279 279 277 276 274 271 268 268 268 269 268 260 246 230 218 210 203 199 196 193 190 188 186 183 179 175 172 169 167 166 165 165 164 163 163 162
297 296 296 296 295 295 295 294 294 294 293 293 292 292 292 293 293 293 293 292 291 290 290 290 289 289 288 287 285 283 281 280 279 279 278 277 274 271 268 266 265 266 266 264 254 238 223 212 206 200 196 192 189 187 185 183 180 177 173 170 168 166 164 163 162 161 161 160 160
297 297 296 296 296 295 295 295 294 293 293 292 292 293 293 293 293 293 292 291 290 289 289 288 288 288 287 285 283 282 281 280 279 279 279 277 275 273 270 268 267 267 267 263 249 231 216 207 201 196 191 187 185 183 180 178 176 173 171 168 167 165 163 161 160 158 157 155 154
298 297 297 297 297 296 296 295 294 294 293 293 293 294 294 294 293 292 291 290 289 289 288 287 287 286 285 282 281 281 280 280 279 278 278 277 275 274 272 271 270 269 268 262 247 226 210 201 196 191 187 183 180 178 176 174 171 170 168 166 165 163 161 160 158 156 153 151 148
299 299 298 298 297 297 296 296 295 294 294 294 294 295 294 294 293 292 291 290 289 288 287 286 286 284 282 281 280 280 279 279 278 277 276 275 274 273 272 271 271 270 268 261 244 222 206 196 191 186 183 179 176 174 172 169 167 166 165 164 163 161 159 157 155 153 150 148 145
300 300 300 299 299 298 298 297 297 296 296 296 296 296 295 294 293 292 291 290 289 288 287 286 285 283 281 280 279 278 278 278 277 276 275 273 272 271 270 270 270 270 267 259 238 216 200 191 185 181 178 176 172 169 167 165 164 163 163 162 160 158 156 154 151 150 148 145 144
302 302 302 301 301 300 300 300 300 299 299 299 298 297 295 294 293 292 290 289 289 288 287 286 284 283 282 280 279 278 277 276 275 275 274 272 271 270 269 269 270 269 265 252 227 205 192 184 179 176 175 172 169 165 163 161 160 160 160 160 158 156 154 152 149 148 146 145 145
306 305 305 305 305 304 304 304 304 303 302 301 299 297 295 294 293 292 291 290 289 288 287 285 284 283 281 280 279 278 276 275 274 274 273 272 270 269 269 269 270 268 258 237 210 193 183 178 174 173 171 168 164 160 157 155 154 155 156 156 155 154 151 148 147 146 146 146 146
310 310 310 310 310 309 308 307 306 305 304 302 299 297 295 294 293 292 291 290 289 288 286 285 283 282 280 279 278 277 276 275 275 274 273 272 270 269 269 269 268 261 242 213 193 182 176 172 170 168 166 162 157 153 150 149 149 150 152 153 152 150 148 146 145 145 146 146 146
314 314 314 314 313 311 310 308 307 305 303 301 298 296 295 293 292 291 290 290 289 287 286 284 283 281 280 279 277 276 275 275 274 273 272 271 270 269 269 268 263 246 217 193 182 175 171 168 165 163 159 154 150 147 145 144 145 147 148 149 147 146 144 144 144 145 146 147 146
315 316 315 314 312 310 308 306 305 303 301 299 297 296 294 293 292 291 290 290 288 287 285 284 283 282 280 280 278 277 275 274 273 273 272 271 271 271 269 263 246 216 192 181 174 170 166 163 160 157 153 148 145 143 142 142 143 145 145 144 142 142 142 143 144 145 146 148 148
314 314 314 312 310 308 306 304 303 301 299 297 296 295 294 294 293 292 291 290 289 287 286 286 285 283 282 281 279 278 277 275 274 273 273 273 273 271 262 241 206 184 176 172 167 164 161 158 155 152 148 144 142 141 141 141 142 143 142 141 140 140 142 143 145 146 148 150 151
313 312 311 309 307 305 304 303 301 300 298 297 296 295 294 294 293 292 292 291 290 289 288 287 285 284 282 281 280 279 278 276 274 273 273 274 272 263 239 196 174 168 166 164 161 159 156 154 152 149 146 143 142 141 141 141 142 142 141 140 141 142 144 145 146 148 150 152 153
311 310 309 307 306 304 303 302 300 299 298 297 297 296 295 295 294 293 292 291 290 288 287 286 285 284 283 282 281 280 279 277 275 275 274 272 263 240 204 175 164 160 160 158 157 155 153 152 149 147 145 143 142 141 141 141 141 141 141 142 143 145 146 146 147 149 151 152 153
310 309 308 306 305 304 303 301 300 299 299 298 297 297 296 295 294 293 292 291 289 287 286 284 284 283 283 283 282 281 280 279 278 277 272 261 236 206 183 168 160 157 157 156 154 153 151 150 148 146 144 142 142 141 141 142 142 142 143 144 145 146 147 147 147 148 149 149 151
309 309 307 306 305 304 303 302 301 300 299 298 297 296 295 295 293 292 291 290 288 286 284 283 283 284 284 284 283 282 281 280 280 276 261 230 198 182 172 163 157 155 155 155 153 152 150 148 147 145 144 143 142 142 142 143 144 145 146 146 147 147 146 146 146 145 145 146 148